Mc Donough, Georgia, United States
Lat: 33.45N, Lon: 84.15W
Wx Zone: GAZ057
Local Info
Past Weather Observations for Today

NOTE: This archive is for the closest National Weather Service station to Mc Donough. Information may differ from the station used for current weather conditions.

Time Weather Temperature Dewpoint Humidity Pressure Winds Precip Visibility
21:52
Clear
61°F / 16°C 37°F / 3°C 42% 29.95 in
(1014 mb)
NW 4.6 mph
(NW 7 kph)
- 10SM
20:52
Clear
64°F / 18°C 36°F / 2°C 34% 29.95 in
(1014 mb)
NNW 8.1 mph
(NNW 13 kph)
- 10SM
19:52
Clear
66°F / 19°C 34°F / 1°C 30% 29.95 in
(1014 mb)
NNW 8.1 mph
(NNW 13 kph)
- 10SM
18:52
Clear
72°F / 22°C 34°F / 1°C 25% 29.92 in
(1013 mb)
NW 10.4 mph
(NW 17 kph)
- 10SM
17:52
Clear
73°F / 23°C 30°F / -1°C 20% 29.92 in
(1013 mb)
NW 10.4 mph
(NW 17 kph)
- 10SM
16:52
Clear
75°F / 24°C 30°F / -1°C 19% 29.92 in
(1013 mb)
NW 9.2 mph
(NW 15 kph)
- 10SM
15:52
Clear
75°F / 24°C 34°F / 1°C 22% 29.92 in
(1013 mb)
NNW 13.8 mph
(NNW 22 kph)
- 10SM
14:52
Clear
75°F / 24°C 36°F / 2°C 24% 29.92 in
(1013 mb)
NNW 10.4 mph
(NNW 17 kph)
- 10SM
13:52
Clear
73°F / 23°C 36°F / 2°C 25% 29.95 in
(1014 mb)
N 12.7 mph
(N 20 kph)
- 10SM
12:52
Clear
72°F / 22°C 37°F / 3°C 29% 29.95 in
(1014 mb)
WNW 13.8 mph
(WNW 22 kph)
- 10SM
11:52
Clear
70°F / 21°C 37°F / 3°C 31% 29.98 in
(1015 mb)
NNW 11.5 mph
(NNW 19 kph)
- 10SM
10:52
Clear
70°F / 21°C 39°F / 4°C 33% 29.98 in
(1015 mb)
NNW 10.4 mph
(NNW 17 kph)
- 10SM
09:52
Partly Cloudy
66°F / 19°C 45°F / 7°C 46% 29.98 in
(1015 mb)
NNW 10.4 mph
(NNW 17 kph)
- 10SM
08:52
Partly Cloudy
63°F / 17°C 46°F / 8°C 56% 29.98 in
(1015 mb)
NW 10.4 mph
(NW 17 kph)
- 10SM
07:52
Clear
59°F / 15°C 46°F / 8°C 63% 29.95 in
(1014 mb)
NW 10.4 mph
(NW 17 kph)
- 10SM
06:52
Clear
57°F / 14°C 48°F / 9°C 72% 29.95 in
(1014 mb)
NNW 11.5 mph
(NNW 19 kph)
- 10SM
05:52
Clear
55°F / 13°C 50°F / 10°C 82% 29.92 in
(1013 mb)
NW 9.2 mph
(NW 15 kph)
- 10SM
04:52
Clear
57°F / 14°C 54°F / 12°C 88% 29.89 in
(1012 mb)
NW 10.4 mph
(NW 17 kph)
- 10SM
03:52
Clear
59°F / 15°C 55°F / 13°C 88% 29.86 in
(1011 mb)
NW 10.4 mph
(NW 17 kph)
- 9SM
02:52
Clear
59°F / 15°C 57°F / 14°C 94% 29.86 in
(1011 mb)
NW 9.2 mph
(NW 15 kph)
- 8SM
01:52
Clear
61°F / 16°C 57°F / 14°C 88% 29.86 in
(1011 mb)
NW 9.2 mph
(NW 15 kph)
- 8SM
00:52
Clear
61°F / 16°C 59°F / 15°C 94% 29.89 in
(1012 mb)
NW 6.9 mph
(NW 11 kph)
- 8SM
Time Weather Temperature Dewpoint Humidity Pressure Winds Precip Visibility


Weather for websites

WeatherForYou.com, LLC is not responsible for any damages or problems caused by this service. Current weather conditions are obtained from the closest station including government and personal stations which may have varying degrees of accuracy. Weather forecasts are derived from the NOAA NDFD. Like all things, this site belongs to Jesus Christ... He just trusts me to maintain it. If you have any questions or comments email webmaster@weatherforyou.com

Copyright © 2014, WeatherForYou.com LLC. All rights reserved.